Location: Fort Worth, Tx
(32.7431°N, 97.3695°W)
Time: 09:47:43
(UTC-04:00)

Altair - Pass Details

Date: 12 October 2023
Orbit: 1501 x 1682 km, 47.2° (Epoch: 06 September)

Event Time Altitude Azimuth Distance (km) Brightness Sun altitude
Rises 03:51:51 0° 283° (WNW) 4,732 - -56.3°
Reaches altitude 10° 03:55:19 10° 293° (WNW) 3,775 - -55.7°
Maximum altitude 04:03:53 35° 356° (N) 2,417 - -54.4°
Exits shadow 04:07:24 28° 31° (NNE) 2,721 9.0 -53.8°
Drops below altitude 10° 04:12:45 10° 59° (ENE) 3,901 10.0 -52.9°
Sets 04:16:24 0° 68° (ENE) 4,908 10.7 -52.3°
